Time,TemperatureF,DewpointF,PressureIn,WindDirection,WindDirectionDegrees,WindSpeedMPH,WindSpeedGustMPH,Humidity,HourlyPrecipIn,Conditions,Clouds,dailyrainin,SoftwareType,DateUTC
2013-01-10 00:00:00,40.1,32.3,30.62,ENE,68,2.2,0.0,73,0.00,,CLR,0.00,VWS V13.01,2013-01-10 05:00:00,
2013-01-10 00:01:00,39.9,32.2,30.62,ENE,68,2.2,0.0,74,0.00,,CLR,0.00,VWS V13.01,2013-01-10 05:01:00,
2013-01-10 00:03:00,39.9,32.3,30.62,South,180,2.2,0.0,74,0.00,,CLR,0.00,VWS V13.01,2013-01-10 05:03:00,
2013-01-10 00:08:00,39.9,32.3,30.62,South,180,2.2,0.0,74,0.00,,CLR,0.00,VWS V13.01,2013-01-10 05:08:00,
2013-01-10 00:13:00,39.9,32.5,30.62,West,270,2.2,0.0,74,0.00,,CLR,0.00,VWS V13.01,2013-01-10 05:13:00,
2013-01-10 00:18:00,40.1,32.8,30.62,West,270,2.2,0.0,75,0.00,,CLR,0.00,VWS V13.01,2013-01-10 05:18:00,
2013-01-10 00:23:00,40.1,32.8,30.62,North,0,0.6,0.0,75,0.00,,CLR,0.00,VWS V13.01,2013-01-10 05:23:00,
2013-01-10 00:28:00,40.1,33.2,30.62,NW,315,2.4,0.0,75,0.00,,CLR,0.00,VWS V13.01,2013-01-10 05:28:00,
2013-01-10 00:33:00,40.1,33.2,30.62,NW,315,1.7,0.0,75,0.00,,CLR,0.00,VWS V13.01,2013-01-10 05:33:00,
2013-01-10 00:38:00,40.1,33.2,30.62,NW,315,2.6,0.0,75,0.00,,CLR,0.00,VWS V13.01,2013-01-10 05:38:00,
2013-01-10 00:43:00,40.2,33.2,30.62,NW,315,1.5,0.0,76,0.00,,CLR,0.00,VWS V13.01,2013-01-10 05:43:00,
2013-01-10 00:48:00,40.4,33.2,30.62,NW,315,1.3,0.0,76,0.00,,CLR,0.00,VWS V13.01,2013-01-10 05:48:00,
2013-01-10 00:53:00,40.2,32.9,30.62,NW,315,2.2,0.0,76,0.00,,CLR,0.00,VWS V13.01,2013-01-10 05:53:00,
2013-01-10 00:58:00,40.2,33.2,30.61,NNW,338,1.1,0.0,75,0.00,,CLR,0.00,VWS V13.01,2013-01-10 05:58:00,
2013-01-10 01:03:00,39.9,33.0,30.62,NW,315,3.8,0.0,76,0.00,,CLR,0.00,VWS V13.01,2013-01-10 06:03:00,
2013-01-10 01:08:00,39.9,32.8,30.61,NW,315,1.3,0.0,76,0.00,,CLR,0.00,VWS V13.01,2013-01-10 06:08:00,
2013-01-10 01:13:00,39.9,32.8,30.61,NW,315,1.3,0.0,76,0.00,,CLR,0.00,VWS V13.01,2013-01-10 06:13:00,
2013-01-10 01:18:00,39.5,32.4,30.61,NW,315,1.3,0.0,76,0.00,,CLR,0.00,VWS V13.01,2013-01-10 06:18:00,
2013-01-10 01:23:00,39.3,32.4,30.61,NW,315,1.3,0.0,76,0.00,,CLR,0.00,VWS V13.01,2013-01-10 06:23:00,
2013-01-10 01:28:00,39.0,32.4,30.61,WNW,292,1.3,0.0,76,0.00,,CLR,0.00,VWS V13.01,2013-01-10 06:28:00,
2013-01-10 01:33:00,39.0,32.2,30.61,NW,315,1.3,0.0,77,0.00,,CLR,0.00,VWS V13.01,2013-01-10 06:33:00,
2013-01-10 01:38:00,38.8,31.8,30.62,West,270,1.3,0.0,77,0.00,,CLR,0.00,VWS V13.01,2013-01-10 06:38:00,
2013-01-10 01:43:00,38.4,32.2,30.62,WNW,292,1.3,0.0,78,0.00,,CLR,0.00,VWS V13.01,2013-01-10 06:43:00,
2013-01-10 01:48:00,38.4,32.5,30.62,WNW,292,1.3,0.0,78,0.00,,CLR,0.00,VWS V13.01,2013-01-10 06:48:00,
2013-01-10 01:53:00,38.4,32.4,30.62,WNW,292,1.3,0.0,79,0.00,,CLR,0.00,VWS V13.01,2013-01-10 06:53:00,
2013-01-10 01:58:00,38.1,32.2,30.62,West,270,4.6,0.0,79,0.00,,CLR,0.00,VWS V13.01,2013-01-10 06:58:00,
2013-01-10 02:03:00,38.1,32.4,30.62,West,270,4.6,0.0,79,0.00,,CLR,0.00,VWS V13.01,2013-01-10 07:03:00,
2013-01-10 02:08:00,38.3,32.4,30.62,West,270,4.6,0.0,79,0.00,,CLR,0.00,VWS V13.01,2013-01-10 07:08:00,
2013-01-10 02:13:00,38.3,32.4,30.62,WNW,292,4.6,0.0,80,0.00,,CLR,0.00,VWS V13.01,2013-01-10 07:13:00,
2013-01-10 02:18:00,38.3,32.7,30.62,NW,315,2.0,0.0,80,0.00,,CLR,0.00,VWS V13.01,2013-01-10 07:18:00,
2013-01-10 02:23:00,38.3,32.7,30.62,NW,315,2.2,0.0,80,0.00,,CLR,0.00,VWS V13.01,2013-01-10 07:23:00,
2013-01-10 02:28:00,38.3,32.7,30.63,NW,315,2.2,0.0,81,0.00,,CLR,0.00,VWS V13.01,2013-01-10 07:28:00,
2013-01-10 02:33:00,38.3,32.8,30.63,NW,315,2.2,0.0,81,0.00,,CLR,0.00,VWS V13.01,2013-01-10 07:33:00,
2013-01-10 02:38:00,38.1,32.6,30.62,NW,315,2.2,0.0,81,0.00,,CLR,0.00,VWS V13.01,2013-01-10 07:38:00,
2013-01-10 02:43:00,37.7,32.6,30.62,NW,315,0.8,0.0,81,0.00,,CLR,0.00,VWS V13.01,2013-01-10 07:43:00,
2013-01-10 02:48:00,37.5,32.1,30.62,NNW,338,0.8,0.0,81,0.00,,CLR,0.00,VWS V13.01,2013-01-10 07:48:00,
2013-01-10 02:53:00,37.0,31.9,30.61,NW,315,0.6,0.0,81,0.00,,CLR,0.00,VWS V13.01,2013-01-10 07:53:00,
2013-01-10 02:59:00,36.8,31.9,30.61,NW,315,2.9,0.0,82,0.00,,CLR,0.00,VWS V13.01,2013-01-10 07:59:00,
2013-01-10 03:04:00,36.8,32.3,30.61,WNW,292,2.9,0.0,83,0.00,,CLR,0.00,VWS V13.01,2013-01-10 08:04:00,
2013-01-10 03:09:00,37.2,32.1,30.61,NW,315,0.4,0.0,83,0.00,,CLR,0.00,VWS V13.01,2013-01-10 08:09:00,
2013-01-10 03:14:00,37.2,32.5,30.61,NW,315,0.4,0.0,83,0.00,,CLR,0.00,VWS V13.01,2013-01-10 08:14:00,
2013-01-10 03:19:00,37.2,32.2,30.61,NW,315,0.4,0.0,83,0.00,,CLR,0.00,VWS V13.01,2013-01-10 08:19:00,
2013-01-10 03:24:00,37.2,32.0,30.61,NW,315,0.4,0.0,82,0.00,,CLR,0.00,VWS V13.01,2013-01-10 08:24:00,
2013-01-10 03:29:00,36.8,31.6,30.61,NW,315,0.4,0.0,82,0.00,,CLR,0.00,VWS V13.01,2013-01-10 08:29:00,
2013-01-10 03:34:00,36.5,31.3,30.61,NW,315,0.4,0.0,82,0.00,,CLR,0.00,VWS V13.01,2013-01-10 08:34:00,
2013-01-10 03:39:00,36.3,31.1,30.61,NW,315,0.4,0.0,82,0.00,,CLR,0.00,VWS V13.01,2013-01-10 08:39:00,
2013-01-10 03:44:00,36.3,31.0,30.60,NW,315,0.4,0.0,82,0.00,,,0.00,VWS V13.01,2013-01-10 08:44:00,
2013-01-10 03:49:00,36.3,31.2,30.60,NW,315,0.4,0.0,82,0.00,,,0.00,VWS V13.01,2013-01-10 08:49:00,
2013-01-10 03:54:00,35.9,31.2,30.60,NW,315,0.4,0.0,83,0.00,,,0.00,VWS V13.01,2013-01-10 08:54:00,
2013-01-10 03:59:00,35.9,31.2,30.60,NW,315,0.4,0.0,83,0.00,,,0.00,VWS V13.01,2013-01-10 08:59:00,
2013-01-10 04:04:00,35.9,31.0,30.60,NW,315,0.4,0.0,83,0.00,,,0.00,VWS V13.01,2013-01-10 09:04:00,
2013-01-10 04:09:00,35.4,30.8,30.60,NW,315,0.4,0.0,83,0.00,,,0.00,VWS V13.01,2013-01-10 09:09:00,
2013-01-10 04:14:00,35.4,30.8,30.61,NW,315,0.4,0.0,83,0.00,,,0.00,VWS V13.01,2013-01-10 09:14:00,
2013-01-10 04:19:00,35.4,30.8,30.60,NW,315,0.4,0.0,83,0.00,,,0.00,VWS V13.01,2013-01-10 09:19:00,
2013-01-10 04:24:00,35.2,30.6,30.60,NW,315,0.4,0.0,83,0.00,,,0.00,VWS V13.01,2013-01-10 09:24:00,
2013-01-10 04:29:00,35.2,30.6,30.60,NW,315,0.4,0.0,83,0.00,,,0.00,VWS V13.01,2013-01-10 09:29:00,
2013-01-10 04:34:00,35.2,30.6,30.61,NW,315,0.4,0.0,83,0.00,,,0.00,VWS V13.01,2013-01-10 09:34:00,
2013-01-10 04:39:00,35.2,30.2,30.61,NW,315,0.4,0.0,83,0.00,,,0.00,VWS V13.01,2013-01-10 09:39:00,
2013-01-10 04:44:00,34.8,30.1,30.60,NW,315,0.4,0.0,83,0.00,,,0.00,VWS V13.01,2013-01-10 09:44:00,
2013-01-10 04:49:00,34.7,30.4,30.60,NW,315,0.4,0.0,83,0.00,,,0.00,VWS V13.01,2013-01-10 09:49:00,
2013-01-10 04:54:00,34.5,30.1,30.60,NW,315,0.4,0.0,84,0.00,,,0.00,VWS V13.01,2013-01-10 09:54:00,
2013-01-10 04:59:00,34.7,30.2,30.61,NW,315,0.4,0.0,83,0.00,,,0.00,VWS V13.01,2013-01-10 09:59:00,
2013-01-10 05:04:00,34.5,30.0,30.60,North,0,0.4,0.0,84,0.00,,,0.00,VWS V13.01,2013-01-10 10:04:00,
2013-01-10 05:09:00,34.3,30.2,30.61,NW,315,0.4,0.0,84,0.00,,,0.00,VWS V13.01,2013-01-10 10:09:00,
2013-01-10 05:14:00,34.1,29.8,30.61,NW,315,0.4,0.0,84,0.00,,,0.00,VWS V13.01,2013-01-10 10:14:00,
2013-01-10 05:19:00,34.1,29.6,30.61,North,0,0.4,0.0,84,0.00,,,0.00,VWS V13.01,2013-01-10 10:19:00,
2013-01-10 05:24:00,34.1,29.5,30.61,NW,315,0.4,0.0,84,0.00,,,0.00,VWS V13.01,2013-01-10 10:24:00,
2013-01-10 05:29:00,34.1,29.6,30.61,NW,315,0.4,0.0,84,0.00,,,0.00,VWS V13.01,2013-01-10 10:29:00,
2013-01-10 05:34:00,33.6,29.6,30.61,NW,315,0.4,0.0,84,0.00,,,0.00,VWS V13.01,2013-01-10 10:34:00,
2013-01-10 05:39:00,33.6,29.4,30.61,NW,315,0.4,0.0,84,0.00,,,0.00,VWS V13.01,2013-01-10 10:39:00,
2013-01-10 05:44:00,33.4,29.4,30.61,NW,315,0.4,0.0,85,0.00,,,0.00,VWS V13.01,2013-01-10 10:44:00,
2013-01-10 05:49:00,33.4,29.4,30.61,NW,315,0.4,0.0,85,0.00,,,0.00,VWS V13.01,2013-01-10 10:49:00,
2013-01-10 05:54:00,33.4,29.6,30.62,NW,315,0.4,0.0,85,0.00,,,0.00,VWS V13.01,2013-01-10 10:54:00,
2013-01-10 05:59:00,33.4,29.9,30.61,NW,315,0.4,0.0,85,0.00,,,0.00,VWS V13.01,2013-01-10 10:59:00,
2013-01-10 06:04:00,33.6,29.9,30.62,NW,315,0.4,0.0,85,0.00,,,0.00,VWS V13.01,2013-01-10 11:04:00,
2013-01-10 06:09:00,33.8,30.2,30.62,North,0,0.4,0.0,86,0.00,,,0.00,VWS V13.01,2013-01-10 11:09:00,
2013-01-10 06:14:00,33.9,30.4,30.63,WNW,292,0.4,0.0,86,0.00,,,0.00,VWS V13.01,2013-01-10 11:14:00,
2013-01-10 06:19:00,33.9,30.6,30.63,WNW,292,0.4,0.0,86,0.00,,,0.00,VWS V13.01,2013-01-10 11:19:00,
2013-01-10 06:24:00,34.3,31.0,30.63,West,270,0.4,0.0,86,0.00,,,0.00,VWS V13.01,2013-01-10 11:24:00,
2013-01-10 06:29:00,34.7,31.5,30.63,SSW,202,0.4,0.0,87,0.00,,,0.00,VWS V13.01,2013-01-10 11:29:00,
2013-01-10 06:34:00,35.2,31.7,30.63,SSW,202,0.4,0.0,87,0.00,,,0.00,VWS V13.01,2013-01-10 11:34:00,
2013-01-10 06:39:00,35.2,31.9,30.63,SSW,202,0.4,0.0,87,0.00,,,0.00,VWS V13.01,2013-01-10 11:39:00,
2013-01-10 06:44:00,35.4,32.1,30.64,SSW,202,0.4,0.0,87,0.00,,,0.00,VWS V13.01,2013-01-10 11:44:00,
2013-01-10 06:49:00,35.7,32.2,30.64,SSW,202,0.4,0.0,87,0.00,,,0.00,VWS V13.01,2013-01-10 11:49:00,
2013-01-10 06:54:00,35.7,32.2,30.64,SSW,202,0.4,0.0,87,0.00,,,0.00,VWS V13.01,2013-01-10 11:54:00,
2013-01-10 06:59:00,35.7,32.2,30.64,SSW,202,0.4,0.0,87,0.00,,,0.00,VWS V13.01,2013-01-10 11:59:00,
2013-01-10 07:04:00,35.7,32.2,30.64,SSW,202,0.4,0.0,87,0.00,,,0.00,VWS V13.01,2013-01-10 12:04:00,
2013-01-10 07:09:00,35.7,32.2,30.64,SSW,202,0.4,0.0,87,0.00,,,0.00,VWS V13.01,2013-01-10 12:09:00,
2013-01-10 07:14:00,35.7,32.2,30.64,SSW,202,0.4,0.0,87,0.00,,,0.00,VWS V13.01,2013-01-10 12:14:00,
2013-01-10 07:19:00,35.6,31.9,30.65,SSW,202,0.4,0.0,87,0.00,,,0.00,VWS V13.01,2013-01-10 12:19:00,
2013-01-10 07:24:00,35.4,31.9,30.65,SSW,202,0.4,0.0,87,0.00,,,0.00,VWS V13.01,2013-01-10 12:24:00,
2013-01-10 07:29:00,35.4,31.7,30.65,SSW,202,0.4,0.0,87,0.00,,,0.00,VWS V13.01,2013-01-10 12:29:00,
2013-01-10 07:34:00,35.2,31.9,30.65,SSW,202,0.4,0.0,87,0.00,,,0.00,VWS V13.01,2013-01-10 12:34:00,
2013-01-10 07:39:00,35.2,31.9,30.65,SSW,202,0.4,0.0,87,0.00,,,0.00,VWS V13.01,2013-01-10 12:39:00,
2013-01-10 07:44:00,35.4,31.9,30.66,SSW,202,0.4,0.0,87,0.00,,,0.00,VWS V13.01,2013-01-10 12:44:00,
2013-01-10 07:49:00,35.7,32.2,30.66,SSW,202,0.4,0.0,87,0.00,,,0.00,VWS V13.01,2013-01-10 12:49:00,
2013-01-10 07:54:00,35.7,32.1,30.66,SSW,202,0.4,0.0,87,0.00,,,0.00,VWS V13.01,2013-01-10 12:54:00,
2013-01-10 07:59:00,35.7,31.9,30.66,SSW,202,0.4,0.0,87,0.00,,,0.00,VWS V13.01,2013-01-10 12:59:00,
2013-01-10 08:04:00,35.4,32.2,30.67,SSW,202,0.4,0.0,87,0.00,,,0.00,VWS V13.01,2013-01-10 13:04:00,
2013-01-10 08:09:00,35.7,31.9,30.68,SSW,202,0.4,0.0,87,0.00,,,0.00,VWS V13.01,2013-01-10 13:09:00,
2013-01-10 08:14:00,35.7,32.4,30.68,SSW,202,0.4,0.0,87,0.00,,,0.00,VWS V13.01,2013-01-10 13:14:00,
2013-01-10 08:19:00,35.7,32.5,30.68,SSW,202,0.4,0.0,87,0.00,,,0.00,VWS V13.01,2013-01-10 13:19:00,
2013-01-10 08:24:00,35.7,32.5,30.69,SSW,202,0.4,0.0,88,0.00,,,0.00,VWS V13.01,2013-01-10 13:24:00,
2013-01-10 08:29:00,35.7,32.5,30.69,SSW,202,0.4,0.0,88,0.00,,,0.00,VWS V13.01,2013-01-10 13:29:00,
2013-01-10 08:34:00,35.6,32.2,30.69,SSW,202,0.4,0.0,88,0.00,,CLR,0.00,VWS V13.01,2013-01-10 13:34:00,
2013-01-10 08:39:00,35.6,32.5,30.69,SSW,202,0.4,0.0,88,0.00,,CLR,0.00,VWS V13.01,2013-01-10 13:39:00,
2013-01-10 08:44:00,35.6,32.2,30.69,SSW,202,0.4,0.0,88,0.00,,,0.00,VWS V13.01,2013-01-10 13:44:00,
2013-01-10 08:49:00,35.7,32.2,30.68,SSW,202,0.4,0.0,88,0.00,,,0.00,VWS V13.01,2013-01-10 13:49:00,
2013-01-10 08:54:00,35.4,32.2,30.68,SSW,202,0.4,0.0,88,0.00,,,0.00,VWS V13.01,2013-01-10 13:54:00,
2013-01-10 08:59:00,35.4,32.2,30.68,SSW,202,0.4,0.0,88,0.00,,,0.00,VWS V13.01,2013-01-10 13:59:00,
2013-01-10 09:04:00,35.7,32.5,30.69,SSW,202,0.4,0.0,88,0.00,,,0.00,VWS V13.01,2013-01-10 14:04:00,
2013-01-10 09:09:00,35.7,32.7,30.69,SSW,202,0.4,0.0,88,0.00,,,0.00,VWS V13.01,2013-01-10 14:09:00,
2013-01-10 09:14:00,35.9,32.7,30.69,SSW,202,0.4,0.0,88,0.00,,,0.00,VWS V13.01,2013-01-10 14:14:00,
2013-01-10 09:19:00,36.1,32.9,30.69,SSW,202,0.4,0.0,88,0.00,,,0.00,VWS V13.01,2013-01-10 14:19:00,
2013-01-10 09:24:00,36.1,33.1,30.69,SSW,202,0.4,0.0,88,0.00,,,0.00,VWS V13.01,2013-01-10 14:24:00,
2013-01-10 09:29:00,36.1,33.1,30.69,SSW,202,0.4,0.0,88,0.00,,,0.00,VWS V13.01,2013-01-10 14:29:00,
2013-01-10 09:34:00,36.5,33.4,30.69,SSW,202,0.4,0.0,88,0.00,,,0.00,VWS V13.01,2013-01-10 14:34:00,
2013-01-10 09:39:00,36.6,33.9,30.69,SSW,202,0.4,0.0,88,0.00,,,0.00,VWS V13.01,2013-01-10 14:39:00,
2013-01-10 09:44:00,36.8,33.9,30.69,SSW,202,0.4,0.0,89,0.00,,,0.00,VWS V13.01,2013-01-10 14:44:00,
2013-01-10 09:49:00,36.8,34.3,30.69,SSW,202,0.4,0.0,89,0.00,,,0.00,VWS V13.01,2013-01-10 14:49:00,
2013-01-10 09:54:00,37.2,34.3,30.69,SSW,202,0.4,0.0,89,0.00,,CLR,0.00,VWS V13.01,2013-01-10 14:54:00,
2013-01-10 09:59:00,37.2,34.3,30.69,SSW,202,0.4,0.0,89,0.00,,CLR,0.00,VWS V13.01,2013-01-10 14:59:00,
2013-01-10 10:04:00,37.2,34.5,30.70,SSW,202,0.4,0.0,89,0.00,,CLR,0.00,VWS V13.01,2013-01-10 15:04:00,
2013-01-10 10:09:00,37.4,34.3,30.70,SSW,202,0.4,0.0,88,0.00,,CLR,0.00,VWS V13.01,2013-01-10 15:09:00,
2013-01-10 10:14:00,37.5,34.3,30.71,SSW,202,0.4,0.0,88,0.00,,CLR,0.00,VWS V13.01,2013-01-10 15:14:00,
2013-01-10 10:19:00,37.7,34.5,30.70,SSW,202,0.4,0.0,88,0.00,,CLR,0.00,VWS V13.01,2013-01-10 15:19:00,
2013-01-10 10:24:00,37.7,34.7,30.71,SSW,202,0.4,0.0,88,0.00,,CLR,0.00,VWS V13.01,2013-01-10 15:24:00,
2013-01-10 10:29:00,37.7,34.7,30.70,SSW,202,0.4,0.0,88,0.00,,CLR,0.00,VWS V13.01,2013-01-10 15:29:00,
2013-01-10 10:34:00,37.9,34.7,30.70,SSW,202,0.4,0.0,88,0.00,,CLR,0.00,VWS V13.01,2013-01-10 15:34:00,
2013-01-10 10:39:00,37.9,34.7,30.70,SSW,202,0.4,0.0,88,0.00,,CLR,0.00,VWS V13.01,2013-01-10 15:39:00,
2013-01-10 10:44:00,37.9,34.9,30.70,SSW,202,0.4,0.0,88,0.00,,CLR,0.00,VWS V13.01,2013-01-10 15:44:00,
2013-01-10 10:49:00,38.1,34.9,30.69,SSW,202,0.4,0.0,88,0.00,,CLR,0.00,VWS V13.01,2013-01-10 15:49:00,
2013-01-10 10:54:00,38.1,35.2,30.69,SSW,202,0.4,0.0,88,0.00,,CLR,0.00,VWS V13.01,2013-01-10 15:54:00,
2013-01-10 10:59:00,38.4,35.6,30.69,SSW,202,0.4,0.0,88,0.00,,CLR,0.00,VWS V13.01,2013-01-10 15:59:00,
2013-01-10 11:04:00,38.4,35.3,30.69,SSW,202,0.4,0.0,88,0.00,,CLR,0.00,VWS V13.01,2013-01-10 16:04:00,
2013-01-10 11:09:00,38.4,35.5,30.69,SSW,202,0.4,0.0,88,0.00,,CLR,0.00,VWS V13.01,2013-01-10 16:09:00,
2013-01-10 11:14:00,38.4,35.5,30.68,SSW,202,0.4,0.0,88,0.00,,CLR,0.00,VWS V13.01,2013-01-10 16:14:00,
2013-01-10 11:19:00,38.4,36.0,30.68,SSW,202,0.4,0.0,88,0.00,,CLR,0.00,VWS V13.01,2013-01-10 16:19:00,
2013-01-10 11:24:00,38.4,36.3,30.68,SSW,202,0.4,0.0,88,0.00,,CLR,0.00,VWS V13.01,2013-01-10 16:24:00,
2013-01-10 11:29:00,38.4,37.0,30.68,SSW,202,0.4,0.0,88,0.00,,CLR,0.00,VWS V13.01,2013-01-10 16:29:00,
2013-01-10 11:34:00,40.6,37.4,30.67,SSW,202,0.4,0.0,87,0.00,,CLR,0.00,VWS V13.01,2013-01-10 16:34:00,
2013-01-10 11:39:00,41.5,37.8,30.67,SSW,202,0.4,0.0,86,0.00,,CLR,0.00,VWS V13.01,2013-01-10 16:39:00,
2013-01-10 11:44:00,42.4,38.4,30.66,SSW,202,0.4,0.0,85,0.00,,CLR,0.00,VWS V13.01,2013-01-10 16:44:00,
2013-01-10 11:49:00,42.4,38.7,30.65,SSW,202,0.4,0.0,85,0.00,,CLR,0.00,VWS V13.01,2013-01-10 16:49:00,
2013-01-10 11:54:00,43.5,38.7,30.65,SSE,158,0.4,0.0,83,0.00,,CLR,0.00,VWS V13.01,2013-01-10 16:54:00,
2013-01-10 11:59:00,43.5,39.3,30.65,East,90,0.4,0.0,83,0.00,,CLR,0.00,VWS V13.01,2013-01-10 16:59:00,
2013-01-10 12:04:00,44.4,39.4,30.64,NNE,22,0.4,0.0,81,0.00,,CLR,0.00,VWS V13.01,2013-01-10 17:04:00,
2013-01-10 12:09:00,44.4,39.2,30.64,NNE,22,0.4,0.0,81,0.00,,CLR,0.00,VWS V13.01,2013-01-10 17:09:00,
2013-01-10 12:14:00,45.3,38.9,30.64,NNE,22,0.4,0.0,78,0.00,,CLR,0.00,VWS V13.01,2013-01-10 17:14:00,
2013-01-10 12:19:00,45.3,38.9,30.64,NNW,338,0.4,0.0,77,0.00,,CLR,0.00,VWS V13.01,2013-01-10 17:19:00,
2013-01-10 12:24:00,45.3,38.0,30.64,NNW,338,0.4,0.0,77,0.00,,CLR,0.00,VWS V13.01,2013-01-10 17:24:00,
2013-01-10 12:29:00,44.9,37.6,30.64,NNW,338,0.6,0.0,76,0.00,,CLR,0.00,VWS V13.01,2013-01-10 17:29:00,
2013-01-10 12:34:00,44.9,37.6,30.63,NNW,338,0.8,0.0,76,0.00,,SCT120,0.00,VWS V13.01,2013-01-10 17:34:00,
2013-01-10 12:39:00,44.9,37.5,30.63,NNW,338,0.8,0.0,76,0.00,,SCT120,0.00,VWS V13.01,2013-01-10 17:39:00,
2013-01-10 12:44:00,44.6,37.6,30.63,NW,315,5.8,0.0,76,0.00,,SCT120,0.00,VWS V13.01,2013-01-10 17:44:00,
2013-01-10 12:49:00,44.9,38.2,30.63,NW,315,1.1,0.0,76,0.00,,SCT120,0.00,VWS V13.01,2013-01-10 17:49:00,
2013-01-10 12:54:00,44.9,38.2,30.63,North,0,2.4,0.0,76,0.00,,BKN120,0.00,VWS V13.01,2013-01-10 17:54:00,
2013-01-10 12:59:00,45.6,38.2,30.63,NNE,22,1.3,0.0,75,0.00,,BKN120,0.00,VWS V13.01,2013-01-10 17:59:00,
2013-01-10 13:04:00,45.6,38.2,30.62,North,0,1.3,0.0,75,0.00,,BKN120,0.00,VWS V13.01,2013-01-10 18:04:00,
2013-01-10 13:09:00,46.0,38.2,30.62,North,0,1.3,0.0,74,0.00,,BKN120,0.00,VWS V13.01,2013-01-10 18:09:00,
2013-01-10 13:14:00,46.2,38.2,30.62,North,0,1.3,0.0,74,0.00,,BKN120,0.00,VWS V13.01,2013-01-10 18:14:00,
2013-01-10 13:19:00,46.2,37.8,30.62,NNE,22,1.3,0.0,74,0.00,,BKN120,0.00,VWS V13.01,2013-01-10 18:19:00,
2013-01-10 13:24:00,46.2,37.8,30.61,NNE,22,1.3,0.0,74,0.00,,BKN120,0.00,VWS V13.01,2013-01-10 18:24:00,
2013-01-10 13:29:00,46.0,37.5,30.61,NNE,22,1.3,0.0,73,0.00,,BKN120,0.00,VWS V13.01,2013-01-10 18:29:00,
2013-01-10 13:34:00,45.8,37.5,30.61,NNE,22,1.3,0.0,72,0.00,,SCT120,0.00,VWS V13.01,2013-01-10 18:34:00,
2013-01-10 13:39:00,46.0,37.5,30.61,NNE,22,60.8,0.0,72,0.00,,SCT120,0.00,VWS V13.01,2013-01-10 18:39:00,
2013-01-10 13:44:00,46.0,37.1,30.61,NNE,22,60.8,0.0,71,0.00,,SCT110,0.00,VWS V13.01,2013-01-10 18:44:00,
2013-01-10 13:49:00,46.0,37.3,30.61,NNE,22,60.8,0.0,71,0.00,,SCT110,0.00,VWS V13.01,2013-01-10 18:49:00,
2013-01-10 13:54:00,46.2,37.5,30.61,NNE,22,60.8,0.0,71,0.00,,SCT120,0.00,VWS V13.01,2013-01-10 18:54:00,
2013-01-10 13:59:00,46.5,37.6,30.61,NNE,22,60.8,0.0,71,0.00,,SCT120,0.00,VWS V13.01,2013-01-10 18:59:00,
2013-01-10 14:04:00,46.7,38.2,30.60,NNE,22,60.8,0.0,71,0.00,,SCT120,0.00,VWS V13.01,2013-01-10 19:04:00,
2013-01-10 14:09:00,47.1,38.0,30.60,NNE,22,60.8,0.0,70,0.00,,SCT120,0.00,VWS V13.01,2013-01-10 19:09:00,
2013-01-10 14:14:00,47.4,38.1,30.61,NNE,22,60.8,0.0,70,0.00,,SCT120,0.00,VWS V13.01,2013-01-10 19:14:00,
2013-01-10 14:19:00,47.4,38.0,30.61,NNE,22,60.8,0.0,70,0.00,,SCT120,0.00,VWS V13.01,2013-01-10 19:19:00,
2013-01-10 14:24:00,47.4,38.0,30.60,NNE,22,60.8,0.0,70,0.00,,SCT120,0.00,VWS V13.01,2013-01-10 19:24:00,
2013-01-10 14:29:00,47.4,38.0,30.61,NNE,22,60.8,0.0,70,0.00,,SCT120,0.00,VWS V13.01,2013-01-10 19:29:00,
2013-01-10 14:34:00,47.6,37.6,30.60,NNE,22,60.8,0.0,68,0.00,,SCT110,0.00,VWS V13.01,2013-01-10 19:34:00,
2013-01-10 14:39:00,47.6,37.6,30.60,NNE,22,60.8,0.0,68,0.00,,SCT110,0.00,VWS V13.01,2013-01-10 19:39:00,
2013-01-10 14:44:00,47.6,37.4,30.60,NNE,22,60.8,0.0,68,0.00,,SCT110,0.00,VWS V13.01,2013-01-10 19:44:00,
2013-01-10 14:49:00,47.3,37.4,30.60,NNE,22,60.8,0.0,68,0.00,,SCT110,0.00,VWS V13.01,2013-01-10 19:49:00,
2013-01-10 14:54:00,47.4,37.3,30.60,NNE,22,60.8,0.0,68,0.00,,CLR,0.00,VWS V13.01,2013-01-10 19:54:00,
2013-01-10 14:59:00,47.3,37.1,30.60,NNE,22,60.8,0.0,68,0.00,,CLR,0.00,VWS V13.01,2013-01-10 19:59:00,
2013-01-10 15:04:00,47.1,37.5,30.59,NNE,22,60.8,0.0,69,0.00,,CLR,0.00,VWS V13.01,2013-01-10 20:04:00,
2013-01-10 15:09:00,47.1,37.7,30.59,NNE,22,60.8,0.0,69,0.00,,CLR,0.00,VWS V13.01,2013-01-10 20:09:00,
2013-01-10 15:14:00,47.1,37.7,30.59,NNE,22,60.8,0.0,69,0.00,,CLR,0.00,VWS V13.01,2013-01-10 20:14:00,
2013-01-10 15:19:00,47.3,37.7,30.60,NNE,22,60.8,0.0,69,0.00,,CLR,0.00,VWS V13.01,2013-01-10 20:19:00,
2013-01-10 15:24:00,47.3,37.7,30.60,NNE,22,60.8,0.0,69,0.00,,CLR,0.00,VWS V13.01,2013-01-10 20:24:00,
2013-01-10 15:29:00,47.3,37.1,30.60,NNE,22,60.8,0.0,69,0.00,,CLR,0.00,VWS V13.01,2013-01-10 20:29:00,
2013-01-10 15:34:00,46.7,37.1,30.60,NNE,22,60.8,0.0,68,0.00,,CLR,0.00,VWS V13.01,2013-01-10 20:34:00,
2013-01-10 15:39:00,46.5,36.7,30.60,NNE,22,1.3,0.0,68,0.00,,CLR,0.00,VWS V13.01,2013-01-10 20:39:00,
2013-01-10 15:44:00,46.2,36.7,30.60,NNE,22,1.3,0.0,68,0.00,,CLR,0.00,VWS V13.01,2013-01-10 20:44:00,
2013-01-10 15:49:00,46.2,36.2,30.60,NNE,22,1.3,0.0,68,0.00,,CLR,0.00,VWS V13.01,2013-01-10 20:49:00,
2013-01-10 15:54:00,46.2,36.0,30.60,NNE,22,1.3,0.0,68,0.00,,CLR,0.00,VWS V13.01,2013-01-10 20:54:00,
2013-01-10 15:59:00,46.2,36.2,30.60,NNE,22,1.3,0.0,68,0.00,,CLR,0.00,VWS V13.01,2013-01-10 20:59:00,
2013-01-10 16:04:00,46.0,36.0,30.60,NNE,22,1.3,0.0,68,0.00,,CLR,0.00,VWS V13.01,2013-01-10 21:04:00,
2013-01-10 16:10:00,46.0,36.0,30.60,NNE,22,1.3,0.0,68,0.00,,CLR,0.00,VWS V13.01,2013-01-10 21:10:00,
2013-01-10 16:15:00,46.0,35.7,30.60,NNE,22,1.3,0.0,68,0.00,,CLR,0.00,VWS V13.01,2013-01-10 21:15:00,
2013-01-10 16:20:00,45.6,35.7,30.59,NNE,22,1.3,0.0,68,0.00,,CLR,0.00,VWS V13.01,2013-01-10 21:20:00,
2013-01-10 16:25:00,45.6,35.7,30.59,NNE,22,1.3,0.0,68,0.00,,CLR,0.00,VWS V13.01,2013-01-10 21:25:00,
2013-01-10 16:30:00,45.6,35.6,30.59,NNE,22,1.3,0.0,68,0.00,,CLR,0.00,VWS V13.01,2013-01-10 21:30:00,
2013-01-10 16:35:00,45.6,35.4,30.60,NNE,22,1.3,0.0,68,0.00,,CLR,0.00,VWS V13.01,2013-01-10 21:35:00,
2013-01-10 16:40:00,45.6,35.2,30.60,NNE,22,1.3,0.0,68,0.00,,CLR,0.00,VWS V13.01,2013-01-10 21:40:00,
2013-01-10 16:45:00,45.6,34.8,30.59,NNE,22,1.3,0.0,68,0.00,,CLR,0.00,VWS V13.01,2013-01-10 21:45:00,
2013-01-10 16:50:00,44.7,34.8,30.60,NNE,22,1.3,0.0,68,0.00,,CLR,0.00,VWS V13.01,2013-01-10 21:50:00,
2013-01-10 16:56:00,44.6,34.7,30.60,NNE,22,1.3,0.0,68,0.00,,CLR,0.00,VWS V13.01,2013-01-10 21:56:00,
2013-01-10 17:01:00,44.4,34.5,30.60,NNE,22,1.3,0.0,68,0.00,,CLR,0.00,VWS V13.01,2013-01-10 22:01:00,
2013-01-10 17:06:00,44.4,34.5,30.60,NNE,22,1.3,0.0,68,0.00,,CLR,0.00,VWS V13.01,2013-01-10 22:06:00,
2013-01-10 17:11:00,44.4,34.3,30.60,NNE,22,1.3,0.0,68,0.00,,CLR,0.00,VWS V13.01,2013-01-10 22:11:00,
2013-01-10 17:16:00,44.4,34.5,30.60,NNE,22,1.3,0.0,68,0.00,,CLR,0.00,VWS V13.01,2013-01-10 22:16:00,
2013-01-10 17:21:00,43.8,34.5,30.59,NNE,22,1.3,0.0,69,0.00,,CLR,0.00,VWS V13.01,2013-01-10 22:21:00,
2013-01-10 17:26:00,43.8,34.3,30.60,NNE,22,1.3,0.0,69,0.00,,CLR,0.00,VWS V13.01,2013-01-10 22:26:00,
2013-01-10 17:31:00,43.8,34.3,30.60,NNE,22,1.3,0.0,68,0.00,,CLR,0.00,VWS V13.01,2013-01-10 22:31:00,
2013-01-10 17:36:00,43.8,34.3,30.60,NNE,22,1.3,0.0,68,0.00,,CLR,0.00,VWS V13.01,2013-01-10 22:36:00,
2013-01-10 17:41:00,43.8,33.8,30.59,NNE,22,1.3,0.0,69,0.00,,CLR,0.00,VWS V13.01,2013-01-10 22:41:00,
2013-01-10 17:46:00,43.7,33.8,30.59,NNE,22,1.3,0.0,68,0.00,,CLR,0.00,VWS V13.01,2013-01-10 22:46:00,
2013-01-10 17:51:00,43.7,33.8,30.59,NNE,22,1.3,0.0,68,0.00,,CLR,0.00,VWS V13.01,2013-01-10 22:51:00,
2013-01-10 17:56:00,43.7,33.7,30.59,NNE,22,1.3,0.0,68,0.00,,CLR,0.00,VWS V13.01,2013-01-10 22:56:00,
2013-01-10 18:02:00,43.5,33.7,30.59,NNE,22,1.3,0.0,68,0.00,,CLR,0.00,VWS V13.01,2013-01-10 23:02:00,
2013-01-10 18:07:00,43.3,33.7,30.59,NNE,22,0.8,0.0,68,0.00,,CLR,0.00,VWS V13.01,2013-01-10 23:07:00,
2013-01-10 18:12:00,43.1,33.6,30.59,NNE,22,0.8,0.0,69,0.00,,CLR,0.00,VWS V13.01,2013-01-10 23:12:00,
2013-01-10 18:17:00,43.1,33.3,30.59,NNE,22,0.8,0.0,68,0.00,,CLR,0.00,VWS V13.01,2013-01-10 23:17:00,
2013-01-10 18:22:00,43.1,33.3,30.60,NNE,22,0.8,0.0,68,0.00,,CLR,0.00,VWS V13.01,2013-01-10 23:22:00,
2013-01-10 18:27:00,43.1,33.3,30.60,NNE,22,0.8,0.0,68,0.00,,CLR,0.00,VWS V13.01,2013-01-10 23:27:00,
2013-01-10 18:32:00,42.9,33.1,30.60,NNE,22,0.8,0.0,68,0.00,,CLR,0.00,VWS V13.01,2013-01-10 23:32:00,
2013-01-10 18:37:00,43.1,32.9,30.59,NNE,22,0.8,0.0,67,0.00,,CLR,0.00,VWS V13.01,2013-01-10 23:37:00,
2013-01-10 18:42:00,43.1,32.9,30.59,NNE,22,0.8,0.0,67,0.00,,CLR,0.00,VWS V13.01,2013-01-10 23:42:00,
2013-01-10 18:48:00,43.3,33.1,30.59,NNE,22,0.8,0.0,67,0.00,,CLR,0.00,VWS V13.01,2013-01-10 23:48:00,
2013-01-10 18:53:00,43.3,33.1,30.59,NNE,22,0.8,0.0,67,0.00,,CLR,0.00,VWS V13.01,2013-01-10 23:53:00,
2013-01-10 18:58:00,43.3,33.1,30.59,NNE,22,0.8,0.0,67,0.00,,CLR,0.00,VWS V13.01,2013-01-10 23:58:00,
2013-01-10 19:03:00,43.3,33.3,30.59,NNE,22,0.8,0.0,67,0.00,,CLR,0.00,VWS V13.01,2013-01-11 00:03:00,
2013-01-10 19:08:00,43.5,33.3,30.59,NNE,22,0.8,0.0,67,0.00,,CLR,0.00,VWS V13.01,2013-01-11 00:08:00,
2013-01-10 19:13:00,43.3,32.9,30.59,NNE,22,0.8,0.0,66,0.00,,CLR,0.00,VWS V13.01,2013-01-11 00:13:00,
2013-01-10 19:18:00,43.3,32.7,30.59,NNE,22,0.8,0.0,66,0.00,,CLR,0.00,VWS V13.01,2013-01-11 00:18:00,
2013-01-10 19:23:00,42.9,32.7,30.59,NNE,22,0.8,0.0,66,0.00,,CLR,0.00,VWS V13.01,2013-01-11 00:23:00,
2013-01-10 19:28:00,42.9,32.3,30.59,NNE,22,0.8,0.0,66,0.00,,CLR,0.00,VWS V13.01,2013-01-11 00:28:00,
2013-01-10 19:33:00,42.9,32.0,30.59,NNE,22,0.8,0.0,66,0.00,,CLR,0.00,VWS V13.01,2013-01-11 00:33:00,
2013-01-10 19:38:00,42.6,32.0,30.59,NNE,22,0.8,0.0,66,0.00,,CLR,0.00,VWS V13.01,2013-01-11 00:38:00,
2013-01-10 19:43:00,42.6,32.0,30.59,NNE,22,0.8,0.0,66,0.00,,CLR,0.00,VWS V13.01,2013-01-11 00:43:00,
2013-01-10 19:48:00,42.8,32.0,30.58,NNE,22,0.8,0.0,66,0.00,,CLR,0.00,VWS V13.01,2013-01-11 00:48:00,
2013-01-10 19:53:00,42.8,32.0,30.58,NNE,22,0.8,0.0,66,0.00,,CLR,0.00,VWS V13.01,2013-01-11 00:53:00,
2013-01-10 19:58:00,42.6,32.0,30.58,NNE,22,0.8,0.0,66,0.00,,CLR,0.00,VWS V13.01,2013-01-11 00:58:00,
2013-01-10 20:03:00,42.6,32.0,30.58,NNE,22,0.8,0.0,66,0.00,,CLR,0.00,VWS V13.01,2013-01-11 01:03:00,
2013-01-10 20:09:00,42.6,31.7,30.58,NNE,22,0.8,0.0,66,0.00,,CLR,0.00,VWS V13.01,2013-01-11 01:09:00,
2013-01-10 20:14:00,42.6,32.0,30.59,NNE,22,0.8,0.0,65,0.00,,CLR,0.00,VWS V13.01,2013-01-11 01:14:00,
2013-01-10 20:19:00,42.6,31.7,30.59,NNE,22,0.8,0.0,65,0.00,,CLR,0.00,VWS V13.01,2013-01-11 01:19:00,
2013-01-10 20:24:00,42.8,31.7,30.59,NNE,22,0.8,0.0,65,0.00,,CLR,0.00,VWS V13.01,2013-01-11 01:24:00,
2013-01-10 20:29:00,42.9,31.9,30.59,NNE,22,0.8,0.0,64,0.00,,CLR,0.00,VWS V13.01,2013-01-11 01:29:00,
2013-01-10 20:34:00,42.8,31.6,30.59,NNE,22,0.8,0.0,65,0.00,,CLR,0.00,VWS V13.01,2013-01-11 01:34:00,
2013-01-10 20:39:00,42.9,31.6,30.59,NNE,22,0.8,0.0,64,0.00,,CLR,0.00,VWS V13.01,2013-01-11 01:39:00,
2013-01-10 20:44:00,42.9,31.6,30.59,NNE,22,0.8,0.0,65,0.00,,CLR,0.00,VWS V13.01,2013-01-11 01:44:00,
2013-01-10 20:50:00,42.9,31.9,30.58,NNE,22,0.8,0.0,64,0.00,,CLR,0.00,VWS V13.01,2013-01-11 01:50:00,
2013-01-10 20:55:00,42.8,31.7,30.59,NNE,22,0.8,0.0,65,0.00,,CLR,0.00,VWS V13.01,2013-01-11 01:55:00,
2013-01-10 21:00:00,42.6,31.5,30.58,NNE,22,0.8,0.0,65,0.00,,CLR,0.00,VWS V13.01,2013-01-11 02:00:00,
2013-01-10 21:05:00,42.4,31.5,30.58,NNE,22,0.8,0.0,65,0.00,,CLR,0.00,VWS V13.01,2013-01-11 02:05:00,
2013-01-10 21:10:00,42.2,31.5,30.58,NNE,22,0.8,0.0,66,0.00,,CLR,0.00,VWS V13.01,2013-01-11 02:10:00,
2013-01-10 21:15:00,42.0,31.5,30.58,NNE,22,0.8,0.0,66,0.00,,CLR,0.00,VWS V13.01,2013-01-11 02:15:00,
2013-01-10 21:20:00,42.0,31.5,30.58,NNE,22,0.8,0.0,66,0.00,,CLR,0.00,VWS V13.01,2013-01-11 02:20:00,
2013-01-10 21:25:00,42.0,31.5,30.59,NNE,22,0.8,0.0,66,0.00,,CLR,0.00,VWS V13.01,2013-01-11 02:25:00,
2013-01-10 21:30:00,42.0,31.1,30.58,NNE,22,0.8,0.0,66,0.00,,CLR,0.00,VWS V13.01,2013-01-11 02:30:00,
2013-01-10 21:35:00,42.0,31.1,30.58,NE,45,0.8,0.0,65,0.00,,CLR,0.00,VWS V13.01,2013-01-11 02:35:00,
2013-01-10 21:40:00,42.4,31.1,30.58,NE,45,0.4,0.0,65,0.00,,BKN025,0.00,VWS V13.01,2013-01-11 02:40:00,
2013-01-10 21:45:00,42.0,31.5,30.58,NE,45,0.4,0.0,65,0.00,,BKN025,0.00,VWS V13.01,2013-01-11 02:45:00,
2013-01-10 21:50:00,42.4,31.1,30.58,NE,45,0.4,0.0,64,0.00,,BKN025,0.00,VWS V13.01,2013-01-11 02:50:00,
2013-01-10 21:55:00,42.4,31.1,30.58,NE,45,0.4,0.0,64,0.00,,BKN025,0.00,VWS V13.01,2013-01-11 02:55:00,
2013-01-10 22:00:00,42.4,31.1,30.58,ENE,68,0.4,0.0,64,0.00,,BKN025,0.00,VWS V13.01,2013-01-11 03:00:00,
2013-01-10 22:05:00,42.4,31.3,30.58,ENE,68,0.4,0.0,64,0.00,,BKN025,0.00,VWS V13.01,2013-01-11 03:05:00,
2013-01-10 22:11:00,42.6,30.9,30.58,ENE,68,0.4,0.0,64,0.00,,BKN025,0.00,VWS V13.01,2013-01-11 03:11:00,
2013-01-10 22:16:00,42.6,30.9,30.57,ENE,68,0.4,0.0,63,0.00,,BKN025,0.00,VWS V13.01,2013-01-11 03:16:00,
2013-01-10 22:21:00,42.6,30.9,30.57,ENE,68,0.4,0.0,63,0.00,,BKN025,0.00,VWS V13.01,2013-01-11 03:21:00,
2013-01-10 22:26:00,42.6,30.9,30.57,ENE,68,0.4,0.0,63,0.00,,BKN025,0.00,VWS V13.01,2013-01-11 03:26:00,
2013-01-10 22:31:00,42.6,30.9,30.57,ENE,68,0.4,0.0,63,0.00,,BKN025,0.00,VWS V13.01,2013-01-11 03:31:00,
2013-01-10 22:36:00,42.6,30.9,30.57,ENE,68,0.4,0.0,63,0.00,,BKN025,0.00,VWS V13.01,2013-01-11 03:36:00,
2013-01-10 22:41:00,42.6,31.1,30.57,ENE,68,0.4,0.0,64,0.00,,BKN025,0.00,VWS V13.01,2013-01-11 03:41:00,
2013-01-10 22:46:00,42.4,31.1,30.57,ENE,68,0.4,0.0,64,0.00,,BKN025,0.00,VWS V13.01,2013-01-11 03:46:00,
2013-01-10 22:51:00,42.4,31.1,30.56,ENE,68,0.4,0.0,64,0.00,,CLR,0.00,VWS V13.01,2013-01-11 03:51:00,
2013-01-10 22:56:00,42.4,31.1,30.56,ENE,68,0.2,0.0,64,0.00,,CLR,0.00,VWS V13.01,2013-01-11 03:56:00,
2013-01-10 23:01:00,42.2,31.3,30.56,ENE,68,0.2,0.0,65,0.00,,CLR,0.00,VWS V13.01,2013-01-11 04:01:00,
2013-01-10 23:06:00,42.2,31.1,30.56,ENE,68,0.2,0.0,65,0.00,,CLR,0.00,VWS V13.01,2013-01-11 04:06:00,
2013-01-10 23:11:00,41.9,31.0,30.56,ENE,68,0.2,0.0,65,0.00,,CLR,0.00,VWS V13.01,2013-01-11 04:11:00,
2013-01-10 23:16:00,42.0,31.4,30.55,ENE,68,1.1,0.0,66,0.00,,CLR,0.00,VWS V13.01,2013-01-11 04:16:00,
2013-01-10 23:21:00,42.0,31.5,30.55,ENE,68,1.1,0.0,66,0.00,,CLR,0.00,VWS V13.01,2013-01-11 04:21:00,
2013-01-10 23:26:00,42.0,31.5,30.56,ENE,68,1.1,0.0,66,0.00,,CLR,0.00,VWS V13.01,2013-01-11 04:26:00,
2013-01-10 23:31:00,42.0,31.5,30.55,ENE,68,0.6,0.0,66,0.00,,CLR,0.00,VWS V13.01,2013-01-11 04:31:00,
2013-01-10 23:36:00,42.0,31.5,30.54,ESE,112,6.9,0.0,66,0.00,,CLR,0.00,VWS V13.01,2013-01-11 04:36:00,
2013-01-10 23:41:00,42.0,31.5,30.55,ENE,68,6.9,0.0,66,0.00,,CLR,0.00,VWS V13.01,2013-01-11 04:41:00,
2013-01-10 23:46:00,42.0,31.9,30.54,ESE,112,0.6,0.0,67,0.00,,CLR,0.00,VWS V13.01,2013-01-11 04:46:00,
2013-01-10 23:51:00,42.4,32.2,30.54,ENE,68,1.1,0.0,67,0.00,,CLR,0.00,VWS V13.01,2013-01-11 04:51:00,
2013-01-10 23:56:00,42.4,32.4,30.54,NE,45,1.1,0.0,67,0.00,,CLR,0.00,VWS V13.01,2013-01-11 04:56:00,